TimeCDT,TemperatureF,Dew PointF,Humidity,Sea Level PressureIn,VisibilityMPH,Wind Direction,Wind SpeedMPH,Gust SpeedMPH,PrecipitationIn,Events,Conditions,WindDirDegrees,DateUTC
12:15 AM,69.8,69.8,100,29.98,5.0,North,-9999.0,-,N/A,,Clear,0,2013-07-20 05:15:00
12:35 AM,69.8,69.8,100,29.98,5.0,North,-9999.0,-,N/A,,Clear,0,2013-07-20 05:35:00
12:55 AM,69.8,69.8,100,29.97,6.0,North,-9999.0,-,N/A,,Clear,0,2013-07-20 05:55:00
1:15 AM,69.8,69.8,100,29.97,7.0,North,-9999.0,-,N/A,,Clear,0,2013-07-20 06:15:00
1:35 AM,69.8,69.8,100,29.97,5.0,North,-9999.0,-,N/A,,Clear,0,2013-07-20 06:35:00
1:55 AM,69.8,69.8,100,29.97,5.0,North,-9999.0,-,N/A,,Clear,0,2013-07-20 06:55:00
2:15 AM,69.8,69.8,100,29.98,5.0,North,-9999.0,-,N/A,,Mostly Cloudy,0,2013-07-20 07:15:00
2:35 AM,69.8,69.8,100,29.97,6.0,North,-9999.0,-,N/A,,Overcast,0,2013-07-20 07:35:00
2:55 AM,69.8,69.8,100,29.97,6.0,North,-9999.0,-,N/A,,Mostly Cloudy,0,2013-07-20 07:55:00
3:15 AM,69.8,69.8,100,29.97,5.0,North,-9999.0,-,N/A,,Mostly Cloudy,0,2013-07-20 08:15:00
3:35 AM,69.8,69.8,100,29.97,5.0,North,-9999.0,-,N/A,,Overcast,0,2013-07-20 08:35:00
3:55 AM,69.8,69.8,100,29.98,6.0,North,-9999.0,-,N/A,,Partly Cloudy,0,2013-07-20 08:55:00
4:15 AM,69.8,68.0,94,29.97,5.0,North,-9999.0,-,N/A,,Mostly Cloudy,0,2013-07-20 09:15:00
4:35 AM,69.8,68.0,94,29.97,4.0,North,-9999.0,-,N/A,,Overcast,0,2013-07-20 09:35:00
4:55 AM,69.8,68.0,94,29.98,0.5,North,-9999.0,-,N/A,Fog,Fog,0,2013-07-20 09:55:00
5:15 AM,69.8,68.0,94,29.98,0.2,North,-9999.0,-,N/A,Fog,Fog,0,2013-07-20 10:15:00
5:35 AM,69.8,68.0,94,29.98,5.0,North,-9999.0,-,N/A,,Overcast,0,2013-07-20 10:35:00
5:55 AM,68.0,68.0,100,29.98,6.0,North,-9999.0,-,N/A,,Overcast,0,2013-07-20 10:55:00
6:15 AM,69.8,68.0,94,29.98,5.0,North,-9999.0,-,N/A,,Overcast,0,2013-07-20 11:15:00
6:35 AM,69.8,69.8,100,29.98,2.0,North,-9999.0,-,N/A,,Overcast,0,2013-07-20 11:35:00
6:55 AM,69.8,69.8,100,29.98,0.5,North,-9999.0,-,N/A,Fog,Fog,0,2013-07-20 11:55:00
7:15 AM,69.8,69.8,100,29.98,2.5,North,-9999.0,-,N/A,,Overcast,0,2013-07-20 12:15:00
7:35 AM,69.8,69.8,100,29.98,3.0,North,-9999.0,-,N/A,,Overcast,0,2013-07-20 12:35:00
7:55 AM,71.6,71.6,100,29.99,4.0,North,-9999.0,-,N/A,,Overcast,0,2013-07-20 12:55:00
8:15 AM,73.4,71.6,94,29.99,5.0,North,-9999.0,-,N/A,,Mostly Cloudy,0,2013-07-20 13:15:00
8:35 AM,73.4,71.6,94,29.99,5.0,North,-9999.0,-,N/A,,Mostly Cloudy,0,2013-07-20 13:35:00
8:55 AM,75.2,71.6,89,29.99,6.0,North,-9999.0,-,N/A,,Mostly Cloudy,0,2013-07-20 13:55:00
9:15 AM,75.2,71.6,89,29.98,6.0,North,-9999.0,-,N/A,,Mostly Cloudy,0,2013-07-20 14:15:00
9:35 AM,77.0,71.6,83,29.98,6.0,North,-9999.0,-,N/A,,Haze,0,2013-07-20 14:35:00
9:55 AM,78.8,71.6,78,29.98,7.0,North,-9999.0,-,N/A,,Scattered Clouds,0,2013-07-20 14:55:00
10:15 AM,80.6,73.4,79,29.98,7.0,North,-9999.0,-,N/A,,Mostly Cloudy,0,2013-07-20 15:15:00
10:35 AM,82.4,73.4,74,29.98,7.0,North,-9999.0,-,N/A,,Mostly Cloudy,0,2013-07-20 15:35:00
10:55 AM,84.2,73.4,70,29.98,7.0,North,-9999.0,-,N/A,,Scattered Clouds,0,2013-07-20 15:55:00
11:15 AM,84.2,73.4,70,29.98,7.0,North,-9999.0,-,N/A,,Scattered Clouds,0,2013-07-20 16:15:00
11:35 AM,82.4,75.2,79,29.97,4.0,North,-9999.0,-,N/A,,Haze,0,2013-07-20 16:35:00
11:55 AM,84.2,73.4,70,29.97,6.0,North,-9999.0,-,N/A,,Haze,0,2013-07-20 16:55:00
12:15 PM,84.2,73.4,70,29.97,7.0,North,-9999.0,-,N/A,,Clear,0,2013-07-20 17:15:00
12:35 PM,84.2,73.4,70,29.97,8.0,North,-9999.0,-,N/A,,Clear,0,2013-07-20 17:35:00
12:55 PM,87.8,73.4,62,29.96,7.0,North,-9999.0,-,N/A,,Clear,0,2013-07-20 17:55:00
1:15 PM,89.6,73.4,59,29.95,8.0,North,-9999.0,-,N/A,,Clear,0,2013-07-20 18:15:00
1:35 PM,89.6,71.6,55,29.95,8.0,North,-9999.0,-,N/A,,Clear,0,2013-07-20 18:35:00
1:55 PM,89.6,73.4,59,29.94,8.0,North,-9999.0,-,N/A,,Clear,0,2013-07-20 18:55:00
2:15 PM,91.4,73.4,55,29.92,8.0,North,-9999.0,-,N/A,,Clear,0,2013-07-20 19:15:00
2:35 PM,91.4,73.4,55,29.91,8.0,North,-9999.0,-,N/A,,Clear,0,2013-07-20 19:35:00
2:55 PM,91.4,71.6,52,29.89,7.0,North,-9999.0,-,N/A,,Clear,0,2013-07-20 19:55:00
3:15 PM,93.2,73.4,52,29.88,8.0,North,-9999.0,-,N/A,Thunderstorm,Clear,0,2013-07-20 20:15:00
3:35 PM,93.2,71.6,49,29.87,8.0,North,-9999.0,-,N/A,Thunderstorm,Partly Cloudy,0,2013-07-20 20:35:00
3:55 PM,91.4,73.4,55,29.86,7.0,North,-9999.0,-,N/A,Thunderstorm,Partly Cloudy,0,2013-07-20 20:55:00
4:15 PM,91.4,71.6,52,29.86,8.0,North,-9999.0,-,N/A,Thunderstorm,Partly Cloudy,0,2013-07-20 21:15:00
4:35 PM,82.4,75.2,79,29.89,1.8,North,-9999.0,-,N/A,Rain-Thunderstorm,Thunderstorms and Rain,0,2013-07-20 21:35:00
4:55 PM,77.0,71.6,83,29.88,6.0,North,-9999.0,-,N/A,Thunderstorm,Unknown,0,2013-07-20 21:55:00
5:15 PM,77.0,69.8,78,29.89,0.2,North,-9999.0,-,N/A,Rain-Thunderstorm,Heavy Thunderstorms and Rain,0,2013-07-20 22:15:00
5:35 PM,73.4,73.4,100,29.89,2.5,North,-9999.0,-,N/A,Rain,Light Rain,0,2013-07-20 22:35:00
5:55 PM,75.2,73.4,94,29.89,5.0,North,-9999.0,-,N/A,,Mostly Cloudy,0,2013-07-20 22:55:00
6:15 PM,75.2,73.4,94,29.90,5.0,North,-9999.0,-,N/A,,Mostly Cloudy,0,2013-07-20 23:15:00
6:35 PM,75.2,73.4,94,29.93,3.0,North,-9999.0,-,N/A,Rain-Thunderstorm,Light Rain,0,2013-07-20 23:35:00
6:55 PM,75.2,71.6,89,29.94,5.0,North,-9999.0,-,N/A,Rain,Heavy Rain,0,2013-07-20 23:55:00
7:15 PM,73.4,71.6,94,29.93,1.2,North,-9999.0,-,N/A,Rain-Thunderstorm,Heavy Thunderstorms and Rain,0,2013-07-21 00:15:00
7:35 PM,73.4,69.8,88,29.93,5.0,North,-9999.0,-,N/A,Thunderstorm,Drizzle,0,2013-07-21 00:35:00
7:55 PM,73.4,71.6,94,29.93,7.0,North,-9999.0,-,N/A,Thunderstorm,Drizzle,0,2013-07-21 00:55:00
8:15 PM,73.4,71.6,94,29.94,6.0,North,-9999.0,-,N/A,Rain,Light Rain,0,2013-07-21 01:15:00
8:35 PM,73.4,71.6,94,29.94,7.0,North,-9999.0,-,N/A,Rain,Light Rain,0,2013-07-21 01:35:00
8:55 PM,73.4,71.6,94,29.94,4.0,North,-9999.0,-,N/A,Rain,Light Rain,0,2013-07-21 01:55:00
9:15 PM,73.4,71.6,94,29.95,4.0,North,-9999.0,-,N/A,Rain,Light Rain,0,2013-07-21 02:15:00
9:35 PM,73.4,73.4,100,29.96,4.0,North,-9999.0,-,N/A,Rain,Light Rain,0,2013-07-21 02:35:00
9:55 PM,73.4,71.6,94,29.95,5.0,North,-9999.0,-,N/A,,Light Drizzle,0,2013-07-21 02:55:00
10:15 PM,73.4,71.6,94,29.95,8.0,North,-9999.0,-,N/A,,Partly Cloudy,0,2013-07-21 03:15:00
10:35 PM,73.4,71.6,94,29.95,7.0,North,-9999.0,-,N/A,,Light Drizzle,0,2013-07-21 03:35:00
10:55 PM,73.4,71.6,94,29.95,7.0,North,-9999.0,-,N/A,,Partly Cloudy,0,2013-07-21 03:55:00
11:15 PM,71.6,71.6,100,29.95,8.0,North,-9999.0,-,N/A,,Partly Cloudy,0,2013-07-21 04:15:00
11:35 PM,71.6,71.6,100,29.95,7.0,North,-9999.0,-,N/A,,Partly Cloudy,0,2013-07-21 04:35:00
11:55 PM,71.6,71.6,100,29.95,5.0,North,-9999.0,-,N/A,,Partly Cloudy,0,2013-07-21 04:55:00